Kelso-Longview, WA
on Wednesday, February 27, 2013

Wednesday
Previous Day Next Day
Daily Summary
 ActualAverage (KSPB)Record (KSPB)
Temperature
Mean Temperature °F / °C °F / °C  
Max Temperature 51°F / 11°C °F / °C 66°F / 18°C (2005)
Min Temperature 42°F / 6°C °F / °C 28°F / -2°C (2001)
Degree Days
Heating Degree Days 18    
Month to date heating degree days  
Since 1 July heating degree days  
Cooling Degree Days 0    
Month to date cooling degree days  
Year to date cooling degree days  
Moisture
Dew Point 38°F / 3°C   
Average Humidity 72    
Maximum Humidity 87    
Minimum Humidity 62    
Precipitation
Precipitation 0.01 in / 0.25 cm in / cm 1.81 in / 4.60 cm (1999)
Month to date precipitation  
Year to date precipitation  
Wind
Wind Speed 7 mph / 11 km/h   
Max Wind Speed 15 mph / 24 km/h   
Max Gust Speed 23 mph / 37 km/h   
Visibility 10 miles / 16 kilometers   
Events     

Key: T is trace of precipitation, MM is missing value
Source: NWS Daily Summary
Time(PST)TemperatureDew PointHumidity Pressure Visibility Wind DirectionWind SpeedGust SpeedPrecipitationEvents Conditions
12:15 AM 44.6°F / 7.0°C 35.6°F / 2.0°C 71% 30.25 in / 1024.3 hPa 10.0 miles / 16.1 kilometers SE 4.6 mph / 7.4 km/h - N/A   Overcast
12:35 AM 44.6°F / 7.0°C 35.6°F / 2.0°C 71% 30.25 in / 1024.3 hPa 10.0 miles / 16.1 kilometers Calm Calm - N/A   Overcast
12:55 AM 44.6°F / 7.0°C 35.6°F / 2.0°C 71% 30.27 in / 1024.9 hPa 10.0 miles / 16.1 kilometers South 9.2 mph / 14.8 km/h - N/A   Overcast
1:15 AM 44.6°F / 7.0°C 35.6°F / 2.0°C 71% 30.26 in / 1024.6 hPa 10.0 miles / 16.1 kilometers SE 9.2 mph / 14.8 km/h - N/A   Overcast
1:35 AM 44.6°F / 7.0°C 35.6°F / 2.0°C 71% 30.26 in / 1024.6 hPa 10.0 miles / 16.1 kilometers ESE 5.8 mph / 9.3 km/h - N/A   Overcast
1:55 AM 44.6°F / 7.0°C 35.6°F / 2.0°C 71% 30.27 in / 1024.9 hPa 10.0 miles / 16.1 kilometers SSE 6.9 mph / 11.1 km/h - N/A   Overcast
2:15 AM 44.6°F / 7.0°C 35.6°F / 2.0°C 71% 30.27 in / 1024.9 hPa 10.0 miles / 16.1 kilometers SSE 5.8 mph / 9.3 km/h - N/A   Overcast
2:35 AM 44.6°F / 7.0°C 35.6°F / 2.0°C 71% 30.27 in / 1024.9 hPa 10.0 miles / 16.1 kilometers SSE 6.9 mph / 11.1 km/h - N/A   Overcast
2:55 AM 44.6°F / 7.0°C 35.6°F / 2.0°C 71% 30.26 in / 1024.6 hPa 10.0 miles / 16.1 kilometers SSE 8.1 mph / 13.0 km/h - N/A   Overcast
3:15 AM 44.6°F / 7.0°C 35.6°F / 2.0°C 71% 30.27 in / 1024.9 hPa 10.0 miles / 16.1 kilometers SSE 6.9 mph / 11.1 km/h - N/A   Overcast
3:35 AM 44.6°F / 7.0°C 35.6°F / 2.0°C 71% 30.27 in / 1024.9 hPa 10.0 miles / 16.1 kilometers SE 6.9 mph / 11.1 km/h - N/A   Overcast
3:55 AM 42.8°F / 6.0°C 35.6°F / 2.0°C 76% 30.26 in / 1024.6 hPa 10.0 miles / 16.1 kilometers SE 4.6 mph / 7.4 km/h - N/A   Overcast
4:15 AM 42.8°F / 6.0°C 35.6°F / 2.0°C 76% 30.27 in / 1024.9 hPa 10.0 miles / 16.1 kilometers ESE 4.6 mph / 7.4 km/h - N/A   Overcast
4:35 AM 42.8°F / 6.0°C 35.6°F / 2.0°C 76% 30.27 in / 1024.9 hPa 10.0 miles / 16.1 kilometers East 4.6 mph / 7.4 km/h - N/A   Overcast
4:55 AM 42.8°F / 6.0°C 35.6°F / 2.0°C 76% 30.28 in / 1025.3 hPa 10.0 miles / 16.1 kilometers ESE 3.5 mph / 5.6 km/h - N/A   Overcast
5:35 AM 42.8°F / 6.0°C 35.6°F / 2.0°C 76% 30.28 in / 1025.3 hPa 10.0 miles / 16.1 kilometers SE 5.8 mph / 9.3 km/h - N/A   Overcast
5:55 AM 42.8°F / 6.0°C 35.6°F / 2.0°C 76% 30.29 in / 1025.6 hPa 10.0 miles / 16.1 kilometers SSE 5.8 mph / 9.3 km/h - N/A   Overcast
6:15 AM 42.8°F / 6.0°C 35.6°F / 2.0°C 76% 30.30 in / 1026.0 hPa 10.0 miles / 16.1 kilometers SE 5.8 mph / 9.3 km/h - N/A   Overcast
6:35 AM 42.8°F / 6.0°C 35.6°F / 2.0°C 76% 30.30 in / 1026.0 hPa 10.0 miles / 16.1 kilometers SSE 4.6 mph / 7.4 km/h - N/A   Overcast
7:15 AM 42.8°F / 6.0°C 35.6°F / 2.0°C 76% 30.30 in / 1026.0 hPa 10.0 miles / 16.1 kilometers SE 4.6 mph / 7.4 km/h - N/A   Overcast
7:35 AM 42.8°F / 6.0°C 35.6°F / 2.0°C 76% 30.30 in / 1026.0 hPa 10.0 miles / 16.1 kilometers SE 5.8 mph / 9.3 km/h - N/A   Overcast
7:55 AM 42.8°F / 6.0°C 35.6°F / 2.0°C 76% 30.31 in / 1026.3 hPa 10.0 miles / 16.1 kilometers SE 5.8 mph / 9.3 km/h - N/A   Overcast
8:15 AM 44.6°F / 7.0°C 35.6°F / 2.0°C 71% 30.31 in / 1026.3 hPa 10.0 miles / 16.1 kilometers SE 9.2 mph / 14.8 km/h - N/A   Overcast
8:35 AM 44.6°F / 7.0°C 37.4°F / 3.0°C 76% 30.31 in / 1026.3 hPa 9.0 miles / 14.5 kilometers SE 6.9 mph / 11.1 km/h - N/A   Overcast
8:55 AM 44.6°F / 7.0°C 37.4°F / 3.0°C 76% 30.31 in / 1026.3 hPa 10.0 miles / 16.1 kilometers SE 6.9 mph / 11.1 km/h - N/A   Overcast
9:15 AM 44.6°F / 7.0°C 37.4°F / 3.0°C 76% 30.30 in / 1026.0 hPa 10.0 miles / 16.1 kilometers SE 8.1 mph / 13.0 km/h - N/A   Overcast
9:35 AM 44.6°F / 7.0°C 37.4°F / 3.0°C 76% 30.29 in / 1025.6 hPa 10.0 miles / 16.1 kilometers SE 11.5 mph / 18.5 km/h 18.4 mph / 29.6 km/h N/A   Overcast
9:55 AM 46.4°F / 8.0°C 37.4°F / 3.0°C 71% 30.29 in / 1025.6 hPa 10.0 miles / 16.1 kilometers SE 11.5 mph / 18.5 km/h 16.1 mph / 25.9 km/h N/A   Mostly Cloudy
10:15 AM 48.2°F / 9.0°C 37.4°F / 3.0°C 66% 30.28 in / 1025.3 hPa 10.0 miles / 16.1 kilometers SSE 11.5 mph / 18.5 km/h - N/A   Overcast
10:35 AM 48.2°F / 9.0°C 37.4°F / 3.0°C 66% 30.28 in / 1025.3 hPa 10.0 miles / 16.1 kilometers SE 13.8 mph / 22.2 km/h 21.9 mph / 35.2 km/h N/A   Overcast
10:55 AM 51.8°F / 11.0°C 39.2°F / 4.0°C 62% 30.29 in / 1025.6 hPa 10.0 miles / 16.1 kilometers SSE 15.0 mph / 24.1 km/h 21.9 mph / 35.2 km/h N/A   Overcast
11:15 AM 48.2°F / 9.0°C 37.4°F / 3.0°C 66% 30.29 in / 1025.6 hPa 10.0 miles / 16.1 kilometers SE 13.8 mph / 22.2 km/h 23.0 mph / 37.0 km/h N/A   Overcast
11:35 AM 48.2°F / 9.0°C 39.2°F / 4.0°C 71% 30.30 in / 1026.0 hPa 10.0 miles / 16.1 kilometers SSE 15.0 mph / 24.1 km/h 23.0 mph / 37.0 km/h N/A   Overcast
11:55 AM 48.2°F / 9.0°C 39.2°F / 4.0°C 71% 30.30 in / 1026.0 hPa 10.0 miles / 16.1 kilometers SE 15.0 mph / 24.1 km/h 19.6 mph / 31.5 km/h N/A   Overcast
12:15 PM 48.2°F / 9.0°C 39.2°F / 4.0°C 71% 30.31 in / 1026.3 hPa 10.0 miles / 16.1 kilometers SSE 12.7 mph / 20.4 km/h 21.9 mph / 35.2 km/h N/A   Overcast
12:35 PM 50.0°F / 10.0°C 39.2°F / 4.0°C 66% 30.29 in / 1025.6 hPa 10.0 miles / 16.1 kilometers SSE 15.0 mph / 24.1 km/h 19.6 mph / 31.5 km/h N/A   Overcast
12:55 PM 50.0°F / 10.0°C 39.2°F / 4.0°C 66% 30.30 in / 1026.0 hPa 10.0 miles / 16.1 kilometers SSE 15.0 mph / 24.1 km/h 20.7 mph / 33.3 km/h N/A   Overcast
1:15 PM 50.0°F / 10.0°C 39.2°F / 4.0°C 66% 30.29 in / 1025.6 hPa 10.0 miles / 16.1 kilometers SSE 10.4 mph / 16.7 km/h 19.6 mph / 31.5 km/h N/A   Overcast
1:35 PM 51.8°F / 11.0°C 39.2°F / 4.0°C 62% 30.29 in / 1025.6 hPa 10.0 miles / 16.1 kilometers SSE 11.5 mph / 18.5 km/h 16.1 mph / 25.9 km/h N/A   Overcast
1:55 PM 50.0°F / 10.0°C 39.2°F / 4.0°C 66% 30.29 in / 1025.6 hPa 10.0 miles / 16.1 kilometers SSE 13.8 mph / 22.2 km/h 19.6 mph / 31.5 km/h N/A   Overcast
2:15 PM 51.8°F / 11.0°C 39.2°F / 4.0°C 62% 30.28 in / 1025.3 hPa 10.0 miles / 16.1 kilometers SSE 12.7 mph / 20.4 km/h 18.4 mph / 29.6 km/h N/A   Overcast
2:35 PM 51.8°F / 11.0°C 39.2°F / 4.0°C 62% 30.27 in / 1024.9 hPa 10.0 miles / 16.1 kilometers SSE 11.5 mph / 18.5 km/h 17.3 mph / 27.8 km/h N/A   Overcast
2:55 PM 51.8°F / 11.0°C 39.2°F / 4.0°C 62% 30.27 in / 1024.9 hPa 10.0 miles / 16.1 kilometers South 12.7 mph / 20.4 km/h - N/A   Overcast
3:15 PM 50.0°F / 10.0°C 39.2°F / 4.0°C 66% 30.28 in / 1025.3 hPa 10.0 miles / 16.1 kilometers SSE 6.9 mph / 11.1 km/h - N/A   Overcast
3:35 PM 50.0°F / 10.0°C 39.2°F / 4.0°C 66% 30.28 in / 1025.3 hPa 10.0 miles / 16.1 kilometers SSE 8.1 mph / 13.0 km/h - N/A   Overcast
3:55 PM 50.0°F / 10.0°C 39.2°F / 4.0°C 66% 30.27 in / 1024.9 hPa 10.0 miles / 16.1 kilometers South 5.8 mph / 9.3 km/h - N/A   Overcast
4:15 PM 50.0°F / 10.0°C 39.2°F / 4.0°C 66% 30.27 in / 1024.9 hPa 10.0 miles / 16.1 kilometers South 8.1 mph / 13.0 km/h - N/A   Overcast
4:35 PM 50.0°F / 10.0°C 39.2°F / 4.0°C 66% 30.27 in / 1024.9 hPa 10.0 miles / 16.1 kilometers SSE 9.2 mph / 14.8 km/h - N/A   Overcast
4:55 PM 50.0°F / 10.0°C 39.2°F / 4.0°C 66% 30.26 in / 1024.6 hPa 10.0 miles / 16.1 kilometers SSE 8.1 mph / 13.0 km/h - N/A   Overcast
5:15 PM 50.0°F / 10.0°C 39.2°F / 4.0°C 66% 30.27 in / 1024.9 hPa 10.0 miles / 16.1 kilometers SE 6.9 mph / 11.1 km/h - N/A   Overcast
5:35 PM 50.0°F / 10.0°C 39.2°F / 4.0°C 66% 30.27 in / 1024.9 hPa 10.0 miles / 16.1 kilometers SSE 4.6 mph / 7.4 km/h - N/A   Overcast
5:55 PM 50.0°F / 10.0°C 39.2°F / 4.0°C 66% 30.26 in / 1024.6 hPa 10.0 miles / 16.1 kilometers ESE 3.5 mph / 5.6 km/h - N/A   Overcast
6:15 PM 48.2°F / 9.0°C 39.2°F / 4.0°C 71% 30.25 in / 1024.3 hPa 10.0 miles / 16.1 kilometers SE 5.8 mph / 9.3 km/h - N/A   Overcast
6:35 PM 48.2°F / 9.0°C 39.2°F / 4.0°C 71% 30.25 in / 1024.3 hPa 10.0 miles / 16.1 kilometers SE 4.6 mph / 7.4 km/h - N/A   Overcast
6:55 PM 48.2°F / 9.0°C 39.2°F / 4.0°C 71% 30.25 in / 1024.3 hPa 10.0 miles / 16.1 kilometers ESE 8.1 mph / 13.0 km/h - N/A   Overcast
7:15 PM 48.2°F / 9.0°C 39.2°F / 4.0°C 71% 30.24 in / 1023.9 hPa 10.0 miles / 16.1 kilometers SE 5.8 mph / 9.3 km/h - N/A   Overcast
7:35 PM 48.2°F / 9.0°C 39.2°F / 4.0°C 71% 30.25 in / 1024.3 hPa 10.0 miles / 16.1 kilometers SSE 4.6 mph / 7.4 km/h - N/A   Overcast
7:55 PM 48.2°F / 9.0°C 41.0°F / 5.0°C 76% 30.25 in / 1024.3 hPa 10.0 miles / 16.1 kilometers SE 6.9 mph / 11.1 km/h - N/A   Overcast
8:35 PM 48.2°F / 9.0°C 41.0°F / 5.0°C 76% 30.26 in / 1024.6 hPa 10.0 miles / 16.1 kilometers SE 4.6 mph / 7.4 km/h - N/A   Overcast
8:55 PM 48.2°F / 9.0°C 41.0°F / 5.0°C 76% 30.26 in / 1024.6 hPa 10.0 miles / 16.1 kilometers SE 4.6 mph / 7.4 km/h - N/A   Overcast
9:15 PM 48.2°F / 9.0°C 41.0°F / 5.0°C 76% 30.27 in / 1024.9 hPa 10.0 miles / 16.1 kilometers South 5.8 mph / 9.3 km/h - N/A   Mostly Cloudy
9:35 PM 48.2°F / 9.0°C 41.0°F / 5.0°C 76% 30.26 in / 1024.6 hPa 10.0 miles / 16.1 kilometers SSE 4.6 mph / 7.4 km/h - N/A   Overcast
9:55 PM 46.4°F / 8.0°C 41.0°F / 5.0°C 81% 30.26 in / 1024.6 hPa 10.0 miles / 16.1 kilometers SE 5.8 mph / 9.3 km/h - N/A   Overcast
10:15 PM 46.4°F / 8.0°C 42.8°F / 6.0°C 87% 30.26 in / 1024.6 hPa 10.0 miles / 16.1 kilometers SE 8.1 mph / 13.0 km/h 17.3 mph / 27.8 km/h N/A   Overcast
10:35 PM 46.4°F / 8.0°C 42.8°F / 6.0°C 87% 30.26 in / 1024.6 hPa 9.0 miles / 14.5 kilometers SE 8.1 mph / 13.0 km/h - N/A   Overcast
11:15 PM 46.4°F / 8.0°C 42.8°F / 6.0°C 87% 30.25 in / 1024.3 hPa 10.0 miles / 16.1 kilometers SE 3.5 mph / 5.6 km/h - N/A   Overcast
11:55 PM 46.4°F / 8.0°C 42.8°F / 6.0°C 87% 30.25 in / 1024.3 hPa 5.0 miles / 8.0 kilometers Calm Calm - 0.01 in / 0.3 cm   Overcast
Moon Phase
Feb. 27 Mar. 04 Mar. 11 Mar. 19 Mar. 27
Sunrise:06:53 AM (PST) Moon Rise:08:34 PM (PST)2/27
Sunset:05:55 PM (PST) Moon Set:07:22 AM (PST)2/27

Copyright © 2014 The Weather Underground, Inc.